| time (UTC) | temp F | wind direction | speed MPH | gust MPH | rain 1hr in | rain 24hr in | rain mn in | humidity % | barometer mb |
| 20260510105358 | 53 | 295 | 0.0 | 0.0 | 0.00 | 0.00 | 0.24 | 85 | 1012.7 |
| 20260510104340 | 52 | 295 | 0.0 | 0.0 | 0.00 | 0.00 | 0.24 | 86 | 1012.7 |
| 20260510103327 | 51 | 294 | 1.0 | 1.0 | 0.00 | 0.00 | 0.24 | 90 | 1012.7 |
| 20260510102305 | 51 | 295 | 0.0 | 0.0 | 0.00 | 0.00 | 0.24 | 97 | 1012.7 |
| 20260510101238 | 50 | 295 | 0.0 | 0.0 | 0.00 | 0.00 | 0.24 | 99 | 1012.8 |
| 20260510100214 | 51 | 295 | 0.0 | 0.0 | 0.00 | 0.00 | 0.24 | 99 | 1013.1 |
| 20260510095150 | 50 | 295 | 0.0 | 0.0 | 0.00 | 0.00 | 0.24 | 99 | 1013.2 |
| 20260510094140 | 50 | 296 | 0.0 | 0.0 | 0.00 | 0.00 | 0.24 | 99 | 1013.2 |
| 20260510093118 | 49 | 295 | 0.0 | 0.0 | 0.00 | 0.00 | 0.24 | 99 | 1013.0 |
| 20260510092054 | 49 | 296 | 0.0 | 0.0 | 0.00 | 0.00 | 0.24 | 99 | 1012.9 |
| 20260510091039 | 49 | 296 | 0.0 | 0.0 | 0.00 | 0.00 | 0.24 | 99 | 1012.9 |
| 20260510090022 | 50 | 296 | 0.0 | 0.0 | 0.00 | 0.00 | 0.24 | 99 | 1012.9 |
| 20260510084958 | 49 | 296 | 0.0 | 0.0 | 0.00 | 0.00 | 0.24 | 99 | 1013.1 |
| 20260510083941 | 49 | 296 | 0.0 | 0.0 | 0.00 | 0.00 | 0.24 | 99 | 1012.8 |
| 20260510082927 | 49 | 296 | 0.0 | 0.0 | 0.00 | 0.00 | 0.24 | 99 | 1012.6 |
| 20260510081902 | 49 | 295 | 1.0 | 1.0 | 0.00 | 0.00 | 0.24 | 99 | 1012.8 |
| 20260510080838 | 49 | 296 | 0.0 | 0.0 | 0.00 | 0.00 | 0.24 | 99 | 1013.1 |
| 20260510075816 | 49 | 296 | 0.0 | 0.0 | 0.00 | 0.00 | 0.24 | 99 | 1012.9 |
| 20260510074750 | 48 | 300 | 0.0 | 0.0 | 0.00 | 0.00 | 0.24 | 99 | 1012.7 |
| 20260510073739 | 48 | 291 | 0.0 | 0.0 | 0.00 | 0.00 | 0.24 | 99 | 1012.9 |
| 20260510072720 | 48 | 273 | 0.0 | 0.0 | 0.00 | 0.00 | 0.24 | 99 | 1013.0 |
| 20260510071654 | 48 | 273 | 0.0 | 0.0 | 0.00 | 0.00 | 0.24 | 99 | 1012.8 |
| 20260510070632 | 48 | 272 | 0.0 | 0.0 | 0.00 | 0.00 | 0.24 | 99 | 1012.7 |
| 20260510065622 | 48 | 272 | 0.0 | 0.0 | 0.00 | 0.00 | 0.24 | 99 | 1012.7 |
| 20260510064558 | 48 | 272 | 0.0 | 0.0 | 0.00 | 0.00 | 0.24 | 99 | 1012.6 |
| 20260510063534 | 48 | 291 | 0.0 | 0.0 | 0.00 | 0.00 | 0.24 | 99 | 1012.9 |
| 20260510062510 | 48 | 293 | 0.0 | 0.0 | 0.00 | 0.00 | 0.24 | 99 | 1012.9 |
| 20260510061503 | 48 | 293 | 0.0 | 0.0 | 0.00 | 0.00 | 0.24 | 99 | 1012.8 |
| 20260510060454 | 48 | 293 | 0.0 | 0.0 | 0.00 | 0.00 | 0.24 | 99 | 1012.7 |
| 20260510055439 | 48 | 293 | 0.0 | 0.0 | 0.00 | 0.00 | 0.24 | 99 | 1012.6 |
| 20260510054422 | 47 | 292 | 0.0 | 0.0 | 0.00 | 0.00 | 0.24 | 99 | 1012.6 |
| 20260510053358 | 47 | 292 | 0.0 | 0.0 | 0.00 | 0.00 | 0.24 | 99 | 1012.7 |
| 20260510052335 | 47 | 292 | 0.0 | 0.0 | 0.00 | 0.00 | 0.24 | 99 | 1012.8 |
| 20260510051311 | 47 | 292 | 0.0 | 0.0 | 0.00 | 0.00 | 0.24 | 99 | 1012.8 |
| 20260510050247 | 47 | 293 | 0.0 | 0.0 | 0.00 | 0.00 | 0.24 | 99 | 1012.8 |
| 20260510045244 | 47 | 293 | 0.0 | 0.0 | 0.00 | 0.00 | 0.24 | 99 | 1012.6 |
| 20260510044230 | 47 | 291 | 0.0 | 0.0 | 0.00 | 0.00 | 0.24 | 99 | 1012.8 |
| 20260510043207 | 46 | 293 | 0.0 | 0.0 | 0.00 | 0.00 | 0.24 | 99 | 1012.7 |
| 20260510042143 | 47 | 291 | 0.0 | 0.0 | 0.00 | 0.00 | 0.24 | 99 | 1012.8 |
| 20260510041134 | 47 | 291 | 0.0 | 0.0 | 0.04 | 0.00 | 0.24 | 99 | 1013.0 |
| 20260510040127 | 47 | 290 | 0.0 | 0.0 | 0.00 | 0.00 | 0.23 | 99 | 1012.9 |
| 20260510035102 | 47 | 311 | 0.0 | 0.0 | 0.00 | 0.00 | 0.23 | 99 | 1013.2 |
| 20260510034054 | 47 | 311 | 0.0 | 0.0 | 0.07 | 0.00 | 0.23 | 99 | 1013.2 |
| 20260510033039 | 47 | 311 | 0.0 | 0.0 | 0.07 | 0.00 | 0.23 | 99 | 1013.2 |
| 20260510032024 | 47 | 311 | 0.0 | 0.0 | 0.00 | 0.00 | 0.22 | 99 | 1013.3 |
| 20260510030959 | 48 | 311 | 0.0 | 0.0 | 0.11 | 0.00 | 0.22 | 99 | 1013.4 |
| 20260510025939 | 48 | 311 | 0.0 | 0.0 | 0.11 | 0.00 | 0.20 | 99 | 1013.5 |
| 20260510024926 | 48 | 312 | 0.0 | 0.0 | 0.18 | 0.00 | 0.19 | 99 | 1013.3 |
| 20260510023918 | 48 | 312 | 0.0 | 0.0 | 0.11 | 0.00 | 0.16 | 99 | 1013.4 |
| 20260510022910 | 48 | 313 | 0.0 | 0.0 | 0.11 | 0.00 | 0.14 | 99 | 1013.7 |
| 20260510021902 | 48 | 318 | 0.0 | 0.0 | 0.11 | 0.00 | 0.12 | 99 | 1013.8 |
| 20260510020839 | 48 | 320 | 0.0 | 0.0 | 0.07 | 0.00 | 0.10 | 98 | 1013.7 |
| 20260510015831 | 48 | 309 | 0.0 | 0.0 | 0.04 | 0.00 | 0.09 | 98 | 1014.0 |
| 20260510014806 | 48 | 325 | 0.0 | 0.0 | 0.14 | 0.00 | 0.08 | 98 | 1014.1 |
| 20260510013758 | 49 | 296 | 0.0 | 0.0 | 0.00 | 0.00 | 0.05 | 98 | 1014.0 |
| 20260510012740 | 49 | 296 | 0.0 | 0.0 | 0.04 | 0.00 | 0.05 | 97 | 1014.3 |
| 20260510011727 | 49 | 287 | 0.0 | 0.0 | 0.07 | 0.00 | 0.05 | 97 | 1014.3 |
| 20260510010718 | 50 | 294 | 1.0 | 2.0 | 0.04 | 0.00 | 0.03 | 96 | 1014.2 |
| 20260510005655 | 50 | 296 | 0.0 | 1.0 | 0.07 | 0.00 | 0.03 | 94 | 1014.0 |
| 20260510004639 | 50 | 296 | 0.0 | 1.0 | 0.04 | 0.00 | 0.02 | 92 | 1014.2 |
| 20260510003623 | 50 | 300 | 0.0 | 0.0 | 0.07 | 0.00 | 0.01 | 89 | 1014.0 |
| 20260510002558 | 52 | 302 | 3.0 | 5.0 | 0.00 | 0.00 | 0.00 | 81 | 1013.9 |
| 20260510001550 | 54 | 294 | 2.0 | 3.0 | 0.00 | 0.00 | 0.00 | 79 | 1013.9 |
| 20260510000541 | 57 | 328 | 1.0 | 2.0 | 0.00 | 0.00 | 0.00 | 57 | 1013.7 |
| 20260509235519 | 54 | 313 | 3.0 | 4.0 | 0.00 | 0.00 | 0.00 | 66 | 1013.7 |
| 20260509234454 | 52 | 299 | 3.0 | 4.0 | 0.00 | 0.00 | 0.00 | 89 | 1013.7 |
| 20260509233441 | 53 | 277 | 0.0 | 0.0 | 0.00 | 0.00 | 0.00 | 89 | 1013.6 |
| 20260509232423 | 54 | 277 | 1.0 | 1.0 | 0.00 | 0.00 | 0.00 | 84 | 1013.7 |
| 20260509231358 | 54 | 284 | 1.0 | 1.0 | 0.00 | 0.00 | 0.00 | 83 | 1013.8 |
| 20260509230342 | 54 | 284 | 0.0 | 0.0 | 0.00 | 0.00 | 0.00 | 84 | 1013.7 |
| 20260509225326 | 53 | 282 | 0.0 | 0.0 | 0.00 | 0.00 | 0.00 | 84 | 1013.8 |
| 20260509224302 | 54 | 279 | 0.0 | 0.0 | 0.00 | 0.00 | 0.00 | 84 | 1013.9 |
| 20260509223238 | 54 | 284 | 0.0 | 0.0 | 0.00 | 0.00 | 0.00 | 82 | 1014.3 |
| 20260509222214 | 54 | 284 | 0.0 | 0.0 | 0.00 | 0.00 | 0.00 | 83 | 1014.0 |
| 20260509221150 | 54 | 284 | 0.0 | 0.0 | 0.00 | 0.00 | 0.00 | 84 | 1014.5 |
| 20260509220140 | 54 | 285 | 0.0 | 0.0 | 0.00 | 0.00 | 0.00 | 85 | 1014.0 |
| 20260509215119 | 54 | 277 | 0.0 | 0.0 | 0.00 | 0.00 | 0.00 | 85 | 1013.8 |
| 20260509214055 | 55 | 285 | 0.0 | 0.0 | 0.00 | 0.00 | 0.00 | 84 | 1014.2 |
| 20260509213041 | 55 | 283 | 0.0 | 0.0 | 0.00 | 0.00 | 0.00 | 85 | 1013.8 |
| 20260509212023 | 55 | 299 | 0.0 | 0.0 | 0.00 | 0.00 | 0.00 | 85 | 1013.9 |
| 20260509210959 | 55 | 283 | 0.0 | 0.0 | 0.00 | 0.00 | 0.00 | 85 | 1013.9 |
| 20260509205941 | 55 | 283 | 0.0 | 0.0 | 0.00 | 0.00 | 0.00 | 85 | 1014.0 |
| 20260509204926 | 55 | 284 | 0.0 | 0.0 | 0.00 | 0.00 | 0.00 | 85 | 1013.9 |
| 20260509203902 | 56 | 283 | 0.0 | 0.0 | 0.00 | 0.00 | 0.00 | 85 | 1014.2 |
| 20260509202838 | 56 | 283 | 0.0 | 0.0 | 0.00 | 0.00 | 0.00 | 84 | 1014.4 |
| 20260509201815 | 56 | 289 | 0.0 | 0.0 | 0.00 | 0.00 | 0.00 | 84 | 1014.1 |
| 20260509200750 | 57 | 283 | 0.0 | 0.0 | 0.00 | 0.00 | 0.00 | 83 | 1014.2 |
| 20260509195741 | 57 | 283 | 2.0 | 2.0 | 0.00 | 0.00 | 0.00 | 83 | 1014.3 |
| 20260509194719 | 57 | 292 | 2.0 | 3.0 | 0.00 | 0.00 | 0.00 | 81 | 1014.2 |
| 20260509193655 | 57 | 292 | 2.0 | 2.0 | 0.00 | 0.00 | 0.00 | 81 | 1014.0 |
| 20260509192640 | 58 | 291 | 2.0 | 2.0 | 0.00 | 0.00 | 0.00 | 81 | 1014.1 |
| 20260509191623 | 58 | 292 | 2.0 | 2.0 | 0.00 | 0.00 | 0.00 | 79 | 1013.9 |
| 20260509190558 | 58 | 291 | 2.0 | 2.0 | 0.00 | 0.00 | 0.00 | 82 | 1013.5 |
| 20260509185535 | 58 | 282 | 1.0 | 1.0 | 0.00 | 0.00 | 0.00 | 81 | 1013.5 |
| 20260509184526 | 58 | 298 | 2.0 | 2.0 | 0.00 | 0.00 | 0.00 | 82 | 1013.4 |
| 20260509183502 | 58 | 291 | 2.0 | 3.0 | 0.00 | 0.00 | 0.00 | 81 | 1013.3 |
| 20260509182439 | 58 | 292 | 2.0 | 2.0 | 0.00 | 0.00 | 0.00 | 82 | 1013.5 |
| 20260509181416 | 59 | 283 | 2.0 | 2.0 | 0.00 | 0.00 | 0.00 | 81 | 1013.3 |
| 20260509180350 | 59 | 292 | 1.0 | 2.0 | 0.00 | 0.00 | 0.00 | 80 | 1013.3 |
| 20260509175342 | 59 | 282 | 2.0 | 2.0 | 0.00 | 0.00 | 0.00 | 77 | 1013.4 |
| 20260509174318 | 59 | 283 | 2.0 | 2.0 | 0.00 | 0.00 | 0.00 | 77 | 1013.4 |
| 20260509173254 | 60 | 282 | 1.0 | 2.0 | 0.00 | 0.00 | 0.00 | 77 | 1013.4 |
| 20260509172241 | 60 | 283 | 1.0 | 2.0 | 0.00 | 0.00 | 0.00 | 74 | 1013.4 |
| 20260509171222 | 61 | 283 | 1.0 | 2.0 | 0.00 | 0.00 | 0.00 | 72 | 1013.1 |
| 20260509170159 | 61 | 279 | 0.0 | 1.0 | 0.00 | 0.00 | 0.00 | 72 | 1013.1 |
| 20260509165141 | 62 | 268 | 0.0 | 0.0 | 0.00 | 0.00 | 0.00 | 68 | 1013.2 |
| 20260509164127 | 63 | 268 | 0.0 | 1.0 | 0.00 | 0.00 | 0.00 | 68 | 1013.1 |
| 20260509163103 | 63 | 264 | 0.0 | 1.0 | 0.00 | 0.00 | 0.00 | 69 | 1013.2 |
| 20260509162039 | 63 | 277 | 0.0 | 0.0 | 0.00 | 0.00 | 0.00 | 67 | 1013.2 |
| 20260509161016 | 63 | 234 | 0.0 | 0.0 | 0.00 | 0.00 | 0.00 | 67 | 1013.4 |
| 20260509155952 | 64 | 257 | 0.0 | 0.0 | 0.00 | 0.00 | 0.00 | 67 | 1013.4 |
| 20260509154941 | 64 | 249 | 0.0 | 0.0 | 0.00 | 0.00 | 0.00 | 67 | 1013.4 |
| 20260509153920 | 64 | 251 | 0.0 | 1.0 | 0.00 | 0.00 | 0.00 | 64 | 1013.4 |
| 20260509152855 | 64 | 281 | 0.0 | 1.0 | 0.00 | 0.00 | 0.00 | 64 | 1013.7 |
| 20260509151841 | 65 | 231 | 0.0 | 1.0 | 0.00 | 0.00 | 0.00 | 62 | 1013.9 |
| 20260509150823 | 65 | 273 | 2.0 | 3.0 | 0.00 | 0.00 | 0.00 | 64 | 1013.9 |
| 20260509145800 | 65 | 253 | 0.0 | 1.0 | 0.00 | 0.00 | 0.00 | 65 | 1014.0 |
| 20260509144741 | 64 | 254 | 0.0 | 1.0 | 0.00 | 0.00 | 0.00 | 66 | 1014.1 |
| 20260509143727 | 65 | 259 | 0.0 | 1.0 | 0.00 | 0.00 | 0.00 | 65 | 1014.0 |
| 20260509142703 | 66 | 246 | 2.0 | 3.0 | 0.00 | 0.00 | 0.00 | 65 | 1014.0 |
| 20260509141639 | 64 | 256 | 0.0 | 1.0 | 0.00 | 0.00 | 0.00 | 69 | 1014.0 |
| 20260509140615 | 64 | 269 | 0.0 | 0.0 | 0.00 | 0.00 | 0.00 | 68 | 1014.1 |
| 20260509135551 | 64 | 223 | 1.0 | 2.0 | 0.00 | 0.00 | 0.00 | 68 | 1014.3 |
| 20260509134540 | 64 | 263 | 0.0 | 0.0 | 0.00 | 0.00 | 0.00 | 69 | 1014.4 |
| 20260509133519 | 64 | 265 | 1.0 | 2.0 | 0.00 | 0.00 | 0.00 | 67 | 1014.4 |
| 20260509132456 | 65 | 184 | 0.0 | 1.0 | 0.00 | 0.00 | 0.00 | 65 | 1014.6 |
| 20260509131441 | 65 | 264 | 0.0 | 2.0 | 0.00 | 0.00 | 0.00 | 67 | 1014.7 |
| 20260509130424 | 65 | 273 | 4.0 | 8.0 | 0.00 | 0.00 | 0.00 | 65 | 1014.4 |
| 20260509125400 | 65 | 247 | 1.0 | 3.0 | 0.00 | 0.00 | 0.00 | 67 | 1014.6 |
| 20260509124341 | 65 | 253 | 2.0 | 3.0 | 0.00 | 0.00 | 0.00 | 67 | 1014.7 |
| 20260509123326 | 65 | 249 | 2.0 | 4.0 | 0.00 | 0.00 | 0.00 | 67 | 1014.4 |
| 20260509122306 | 64 | 237 | 1.0 | 2.0 | 0.00 | 0.00 | 0.00 | 67 | 1014.9 |
| 20260509121241 | 63 | 248 | 0.0 | 1.0 | 0.00 | 0.00 | 0.00 | 70 | 1015.0 |
| 20260509120232 | 64 | 230 | 2.0 | 3.0 | 0.00 | 0.00 | 0.00 | 70 | 1014.8 |
| 20260509115207 | 64 | 229 | 1.0 | 2.0 | 0.00 | 0.00 | 0.00 | 69 | 1015.0 |
| 20260509114159 | 65 | 243 | 1.0 | 2.0 | 0.00 | 0.00 | 0.00 | 67 | 1015.1 |
| 20260509113141 | 65 | 175 | 2.0 | 3.0 | 0.00 | 0.00 | 0.00 | 67 | 1014.9 |
| 20260509112128 | 64 | 268 | 1.0 | 3.0 | 0.00 | 0.00 | 0.00 | 68 | 1015.0 |
| 20260509111119 | 66 | 257 | 1.0 | 3.0 | 0.00 | 0.00 | 0.00 | 67 | 1015.0 |
| 20260509110057 | 66 | 124 | 2.0 | 3.0 | 0.00 | 0.00 | 0.00 | 66 | 1014.8 |